Regional Weather Roundup
Issued by NWS

Home | Current Version | Previous Version | Text Only | Print | Product List | Glossary Off
Versions: 1 2 3 4 5 6 7 8 9 10 11 12 13 14 15 16 17 18 19 20 21 22 23 24 25 26 27 28 29 30 31 32 33 34 35 36 37 38 39 40 41 42 43 44 45 46 47 48 49 50

000
ASUS43 KMPX 231510
RWRMN
WEATHER ROUNDUP FOR MINNESOTA
NATIONAL WEATHER SERVICE TWIN CITIES/CHANHASSEN MN
900 AM CST THU NOV 23 2017


NOTE: "FAIR" INDICATES FEW OR NO CLOUDS BELOW 12,000 FEET WITH NO
SIGNIFICANT WEATHER AND/OR OBSTRUCTIONS TO VISIBILITY. N/A MEANS
CURRENT SKY AND/OR WEATHER CONDITIONS ARE NOT AVAILABLE.

MNZ060>063-068>070-231600-
   Twin Cities Metro

CITY           SKY/WX    TMP DP  RH WIND       PRES   REMARKS
TWIN CITIES    MOSUNNY   30  21  69 CALM      29.94F
ST PAUL        SUNNY     28  23  81 CALM      29.95F
CRYSTAL        CLOUDY    26  17  68 CALM      29.92F
BLAINE         SUNNY     27  21  80 CALM      29.92F
LAKEVILLE      SUNNY     27  21  80 CALM      29.94F
EDEN PRAIRIE   SUNNY     27  20  75 SW3       29.93F
SOUTH ST PAUL  SUNNY     28  20  72 CALM      29.94F
LAKE ELMO      FAIR      28  23  80 CALM      29.93F
$$
MNZ001>005-007-008-013>017-022>024-027-028-231600-
   Northwest Minnesota

CITY           SKY/WX    TMP DP  RH WIND       PRES   REMARKS
BEMIDJI        CLOUDY    19  17  93 CALM      29.87S
HALLOCK        CLOUDY    25  23  93 S7        29.85F FOG     WCI  17
ROSEAU         CLOUDY    21  18  86 SW3       29.85F
WARROAD        CLOUDY    19  16  86 CALM      29.86S
THIEF RVR FALL FOG       25  24  96 S5        29.87F VSB 1/4 WCI  19
CROOKSTON      CLOUDY    28  25  86 S8        29.88F WCI  20
FOSSTON        FOG       23  21  93 S5        29.88F VSB 1   WCI  17
DETROIT LAKES  FOG       27  27 100 CALM      29.89F VSB 1/2
MOORHEAD       CLOUDY    27  23  86 CALM      29.91F FOG
PARK RAPIDS    CLOUDY    18  15  88 CALM      29.87F
MAHNOMEN       CLOUDY    24  24  96 SW5       29.88S FOG     WCI  19
$$
MNZ006-009>011-018-025>026-231600-
   North Central Minnesota

CITY           SKY/WX    TMP DP  RH WIND       PRES   REMARKS
BAUDETTE       CLOUDY    19  16  88 CALM      29.85S
FLAG ISLAND    CLOUDY    21  18  86 CALM      29.83F
INTL FALLS     CLOUDY    21  16  81 W3        29.85F
WASKISH        CLOUDY    23  19  86 SW6       29.86F WCI  16
BIG FORK       CLOUDY    19  18  93 CALM      29.87S
LONGVILLE      CLOUDY    18  16  93 CALM      29.89F
GRAND RAPIDS   CLOUDY    22  19  89 W3        29.90S
CRANE LAKE     CLOUDY    19  18  93 CALM      29.87F
ORR            CLOUDY    19  16  86 CALM      29.83F
COOK           CLOUDY    19  18  93 SW5       29.86F WCI  13
WALKER         FAIR      19  16  88 CALM      29.88R
$$
MNZ012-019>021-037-231600-
   Northeast Minnesota

CITY           SKY/WX    TMP DP  RH WIND       PRES   REMARKS
DULUTH         CLOUDY    23  20  88 W8        29.87R WCI  14
ELY            CLOUDY    19  18  93 W3        29.85S
HIBBING        CLOUDY    18  16  92 CALM      29.86F
EVELETH        CLOUDY    20  16  85 W5        29.88S WCI  13
DULUTH HARBOR  MOSUNNY   25  21  86 SW6       29.93S WCI  18
TWO HARBORS    CLOUDY    28  23  80 CALM      29.86S
SILVER BAY     CLOUDY    25  19  80 CALM      29.85F
GRAND MARAIS     N/A     28  20  71 VRB3      29.85F
G MARAIS ARPRT CLOUDY    19  14  79 W6        29.79F WCI  11
$$
MNZ029>031-032-039>041-046>048-054>057-064-231600-
   West Central Minnesota

CITY           SKY/WX    TMP DP  RH WIND       PRES   REMARKS
FERGUS FALLS   CLOUDY    21  18  86 S3        29.95F
WHEATON        SUNNY     27  21  80 CALM      29.94F
MORRIS         CLOUDY    25  19  80 CALM      29.93F
ALEXANDRIA     CLOUDY    26  21  81 W6        29.91F WCI  19
ELBOW LAKE     FAIR      20  17  86 W5        29.93F FOG     WCI  14
WADENA         CLOUDY    21  18  86 W3        29.89S
GLENWOOD       CLOUDY    25  21  86 W7        29.92F WCI  17
APPLETON       SUNNY     27  21  80 CALM      29.95F
BENSON         CLOUDY    25  19  80 NW3       29.95F
ORTONVILLE     SUNNY     28  21  74 CALM      29.93F
MADISON        SUNNY     30  25  80 CALM      29.95F
WILLMAR        FAIR      25  19  80 CALM      29.95F
$$
MNZ033>034-036-042>043-049>051-058-059-231600-
   Central Minnesota

CITY           SKY/WX    TMP DP  RH WIND       PRES   REMARKS
ST CLOUD       CLOUDY    25  20  81 CALM      29.93R
SAUK CENTRE    FAIR      23  19  84 CALM      29.91F
PAYNESVILLE    CLOUDY    26  22  84 W3        29.93F
AITKIN         CLOUDY    19  18  93 W3        29.89S
PINE RIVER     CLOUDY    12  10  92 CALM      29.92F
BRAINERD       CLOUDY    18  15  88 S3        29.91R
STAPLES        CLOUDY    19  16  86 CALM      29.89F
LITTLE FALLS   CLOUDY    23  16  74 CALM      29.92F
LITCHFIELD     CLOUDY    28  21  74 W3        29.94F
BUFFALO        CLOUDY    26  20  79 CALM      29.95S
MAPLE LAKE     CLOUDY    27  22  81 SW3       29.94S
HUTCHINSON     CLOUDY    26  22  83 SW5       29.96S WCI  21
$$
MNZ037-044-045-052-053-231600-
   East Central Minnesota

CITY           SKY/WX    TMP DP  RH WIND       PRES   REMARKS
PRINCETON      CLOUDY    27  25  93 CALM      29.93R
MORA           CLOUDY    21  19  93 CALM      29.93S
CAMBRIDGE      CLOUDY    27  19  74 CALM      29.93S
RUSH CITY      CLOUDY    23  21  93 CALM      29.92S
MOOSE LAKE     CLOUDY    19  18  93 CALM      29.89S
HINCKLEY       FAIR      21  21 100 CALM      29.92S
CLOQUET        CLOUDY    21  19  93 W5        29.89S WCI  15
MCGREGOR       MOSUNNY   21  19  93 CALM      29.90S
$$
MNZ071>073-080-081-089-090-097-098-231600-
   Southwest Minnesota

CITY           SKY/WX    TMP DP  RH WIND       PRES   REMARKS
MONTEVIDEO     CLOUDY    30  27  86 CALM      29.95F
GRANITE FALLS  SUNNY     29  24  81 W3        29.97F
CANBY          SUNNY     32  25  75 SW3       29.95F
MARSHALL       SUNNY     32  24  72 SW6       29.95F WCI  26
REDWOOD FALLS  SUNNY     28  20  71 NW6       29.96F WCI  22
OLIVIA         CLOUDY    28  23  80 W6        29.95F WCI  22
PIPESTONE      SUNNY     27  23  86 NE3       29.95F
WINDOM         SUNNY     30  16  55 W5        29.96F WCI  25
WORTHINGTON    SUNNY     31  24  75 SW7       29.97S WCI  24
JACKSON        SUNNY     30  23  74 CALM      29.97S
SLAYTON        SUNNY     31  17  55 W3        29.95F
$$
MNZ065>067-074>077-082>085-091>093-231600-
   South Central Minnesota

CITY           SKY/WX    TMP DP  RH WIND       PRES   REMARKS
MANKATO        CLOUDY    26  19  74 W5        29.97R WCI  20
NEW ULM        CLOUDY    25  19  80 CALM      29.96F
ST JAMES       SUNNY     28  21  74 W8        29.98F WCI  20
FAIRMONT       SUNNY     30  23  75 NW8       29.97F WCI  22
GLENCOE        CLOUDY    27  21  80 SW5       29.95S WCI  21
FARIBAULT      SUNNY     28  21  74 CALM      29.95F
OWATONNA       SUNNY     28  21  74 CALM      29.95S
WASECA         CLOUDY    28  21  74 SW5       29.97S WCI  23
ALBERT LEA     SUNNY     30  19  64 NW3       29.95S
$$
MNZ078>079-086>088-094>096-231600-
   Southeast Minnesota

CITY           SKY/WX    TMP DP  RH WIND       PRES   REMARKS
ROCHESTER      SUNNY     29  20  69 NW8       29.94R WCI  21
RED WING       SUNNY     28  19  69 CALM      29.95S
STANTON        SUNNY     28  21  78 S3        29.94F
DODGE CENTER   SUNNY     28  19  69 W5        29.93F WCI  23
WINONA         SUNNY     30  23  74 NW3       29.97R
PRESTON        SUNNY     29  20  69 NW7       29.94R WCI  21
$$
ABBREVIATIONS USED IN REMARKS
   TC - TEMPERATURES IN CELSIUS
  WCI - WIND CHILL INDEX
   HX - HEAT INDEX
  VSB - VISIBILITY
$$



USA.gov is the U.S. government's official web portal to all federal, state and local government web resources and services.